COSMOS 1275 DEB, 12748

Orbit data source: Space-Track

COSMOS 1275 DEB, 12748 is space debris in LEO originally from a launch on Thu, 04 Jun 1981 UTC launched from the Plesetsk Missile And Space Complex (PKMTR). Debris objects in space refer to the collection of defunct objects orbiting the Earth. Examples of debris include non-operational satellites, rocket bodies, and fragments generated from explosions, collisions, or faulty payload assembly.

Loading next visibility...
Identifier
12748, 1981-053CR
Orbit
LEO
Country
Flag of CISCIS
Related business
Manufacturer
Unknown
Mission
Spacecraft
Bus & Motor
Unknown
Mass
Unknown
Launch date (UTC)
1981-06-04 (45 years ago)
Launch vehicle
Unknown
Launch site
Plesetsk Missile And Space Complex (PKMTR)
Object type
Payload
Rocket body
Debris
Shape & HBR
Unknown shape, 0.2 m
Radar Cross Section
Medium (>0.1 m² and <1 m²)

Expand to show TLE details & history
Last TLE update: 17 hours ago

TLE from 17 hours ago
0 COSMOS 1275 DEB
1 12748U 81053CR  26195.97160227  .00000158  00000-0  14903-3 0  9990
2 12748  82.9881 354.4295 0043085 235.0035 253.8584 13.74973885250197
Epoch: 2026-07-14T23:19Z
TLE epoch observation values (Epoch: 2026-07-14T23:19:06.436Z)
Latitude
51.17093°
Longitude
-116.92569°
Altitude
998.933 km
Speed
7.353 km/s
True Right ascension
11h 02m 44s
True Declination
51° 00' 30"
Sunlit
Object was in daylight at epoch
Visualization orbit readout
Latitude
Unknown
Longitude
Unknown
Altitude
Unknown
Speed
Unknown
Apparent Right ascension
Unknown
Apparent Declination
Unknown
Sunlit
N/A
Visualization observer readout
Local Sidereal Time
04:26:30
Azimuth
Unknown
Elevation
Unknown
Doppler factor
Unknown
Orbital elements
Apogee altitude
1,010.613 km
Perigee altitude
947.217 km
Semi-major axis
7,357.052 km
Eccentricity
0.00431
Inclination
82.9881°
RAAN
354.4295°
Arg. of periapsis
235.0035°
True anomaly
253.38486°
Mean anomaly
253.8584°
Eccentric anomaly
253.62156°
Mean motion
3.43944 °/min
Orbital period
104.67 mins
BSTAR
0.00014903
Loading maneuver chart data...
Computing Atmospheric mass density...
Loading historical data...
Loading historical data...
Loading historical data...
Loading historical data...
Loading historical data...
Loading historical data...
Loading historical data...

Documentation

Showing up to 5 results
|